Wetbulb
69.27 68.52 68.78 68.78 69.17 69.12 68.86 69.16 67.92 66.98 65.26 63.76 63.03 60.91 58.49 57.01 56.16 54.22 52.75 51.84 49.56 47.76 46.62 44.36 42.07 40.61 39.31 38.55 37.73 37.18 36.47 36.17 33.06 34.80 36.73 37.65 37.63 37.45 38.91 38.82 40.82 39.86 41.02
68.47 68.18 68.34 68.61 69.01 68.86 68.90 67.61 67.00 65.49 64.51 63.21 61.27 59.22 57.77 56.92 54.28 53.56 51.83 49.69 46.94 44.28 42.29 41.25 40.54 41.67 37.24 36.94 35.56 36.06 36.33 35.95 34.10 31.41 33.25 34.56 35.59 36.56 37.35 36.68 39.60 41.86 39.08
67.67 67.87 67.41 68.14 68.12 68.70 66.98 66.44 65.34 64.14 62.85 61.24 59.83 57.88 57.16 55.02 53.21 51.74 49.41 47.11 44.65 42.90 40.98 39.22 38.02 37.83 37.28 36.21 35.89 36.10 36.37 37.83 34.47 32.17 32.18 33.62 34.48 35.72 36.40 36.37 36.81 36.42 40.90
66.81 66.76 66.67 67.92 68.14 67.09 65.74 64.37 63.62 62.61 60.59 59.43 58.04 57.07 55.42 53.59 51.61 49.62 46.97 43.04 41.10 39.87 39.30 38.54 38.84 39.02 38.61 37.95 38.14 37.17 37.04 35.04 33.96 32.41 31.81 32.38 32.34 34.63 34.41 33.65 35.63 37.85 37.10
66.16 66.00 66.74 67.76 67.32 65.22 63.62 62.80 61.04 60.66 59.25 57.81 56.40 54.70 53.84 52.04 51.09 48.10 44.82 40.86 39.04 37.89 37.31 37.79 39.59 43.87 46.09 44.16 39.12 37.38 35.74 33.04 32.60 32.08 31.15 31.35 31.37 33.57 33.49 33.12 33.02 35.47 37.44
66.63 65.45 66.89 66.49 64.26 62.62 60.71 60.04 58.65 57.44 55.34 54.92 54.67 53.28 51.75 51.01 47.56 47.80 45.09 40.27 39.26 36.50 33.06 32.68 36.09 38.63 39.89 43.98 44.08 44.95 40.19 33.26 32.34 31.62 31.73 30.76 30.82 31.94 32.32 34.14 31.70 33.13 31.23
64.48 66.15 66.22 63.52 61.09 59.89 58.80 56.06 53.85 52.36 51.67 52.45 51.47 50.39 46.53 44.42 43.46 43.26 42.75 37.12 33.73 32.13 30.86 31.28 34.94 37.28 36.26 35.13 38.61 40.00 39.54 42.22 42.05 34.33 31.08 31.72 31.79 33.38 31.48 32.38 34.07 32.52 32.51
60.04 60.88 62.18 60.14 57.91 54.61 53.32 51.39 50.15 50.03 49.60 49.73 47.26 44.39 42.39 41.43 40.99 40.01 39.43 34.73 33.34 32.05 31.13 30.42 30.31 31.24 35.44 34.66 33.76 33.49 33.52 34.60 36.71 38.65 34.64 33.24 33.78 35.07 34.84 34.58 32.84 31.90 34.00
55.72 54.26 57.26 56.24 53.12 51.88 50.85 48.51 47.52 47.40 46.47 46.76 44.67 43.00 40.07 37.89 38.68 37.51 35.63 33.67 32.61 31.66 32.27 31.73 31.31 31.18 37.60 36.76 32.79 32.16 32.51 34.04 40.72 41.87 40.57 39.88 38.83 38.92 40.22 35.31 33.39 32.32 31.47
56.12 54.84 53.33 51.62 51.83 49.94 48.20 47.07 45.57 45.58 44.57 42.49 41.80 40.17 39.94 36.83 38.66 37.59 35.90 34.35 31.83 31.15 30.51 31.36 38.66 34.25 36.75 36.72 30.88 30.25 31.05 31.70 33.26 32.66 32.82 34.40 35.40 36.71 39.86 36.35 34.66 31.49 31.43
53.05 53.18 50.79 49.82 49.00 47.88 46.38 45.04 44.34 43.21 41.60 39.20 38.12 39.02 40.07 39.78 38.99 38.94 38.17 35.25 33.93 32.44 31.88 31.79 31.67 37.81 37.37 37.54 35.89 32.53 33.13 33.32 33.28 31.30 31.50 33.48 34.22 35.10 35.87 36.15 35.89 31.10 31.98
50.30 49.07 48.30 48.11 48.35 46.79 44.78 43.74 42.57 40.15 37.55 36.95 36.75 36.55 38.07 39.74 41.38 39.70 38.76 37.24 36.76 32.95 31.70 30.83 32.20 37.98 37.87 37.42 35.88 36.49 36.70 34.76 30.86 31.94 32.03 31.92 32.28 33.48 34.71 35.40 35.61 33.66 35.63
47.95 47.04 46.20 45.83 45.16 45.27 43.39 41.25 38.61 38.18 37.06 36.52 35.85 35.01 35.27 37.51 37.83 39.14 38.33 38.31 38.65 33.61 33.78 38.31 38.00 37.10 37.10 35.91 37.30 36.97 35.63 31.31 31.83 30.84 30.12 30.97 32.10 33.87 34.86 35.05 35.14 34.97 34.49
45.29 44.46 43.98 43.14 42.42 42.17 41.29 39.82 37.97 36.74 36.01 35.72 35.30 34.42 34.34 34.40 34.55 34.53 34.58 33.31 38.08 36.92 37.89 36.49 37.47 36.50 37.09 35.61 33.18 33.28 32.62 32.73 30.07 28.17 29.25 30.61 33.04 33.83 33.64 34.26 32.62 32.97 32.39
43.60 42.75 41.30 40.60 39.58 38.29 37.89 37.77 36.84 37.02 37.53 36.69 35.65 35.56 35.26 33.91 31.90 33.53 33.10 33.23 33.59 35.08 34.15 32.92 31.05 30.10 29.49 29.61 30.37 30.66 30.41 31.19 30.74 29.68 29.73 30.30 31.38 32.41 32.85 33.71 32.36 31.78 30.57
40.39 39.51 38.74 37.95 37.65 37.29 36.50 35.49 36.80 37.21 36.05 35.22 35.29 34.78 33.65 34.67 36.22 36.62 36.56 36.59 36.00 35.87 32.22 29.39 28.40 28.69 28.84 28.68 27.91 27.22 28.82 30.28 29.39 30.02 29.07 29.43 29.87 30.67 31.65 32.22 31.76 30.68 29.90
38.42 37.62 37.14 37.40 36.73 36.15 36.72 35.40 32.19 33.86 35.85 35.19 34.91 35.16 35.33 35.53 36.05 36.42 36.12 35.50 34.95 34.48 30.56 28.57 28.62 28.90 28.79 28.34 26.69 25.77 25.78 26.81 27.51 28.41 27.57 28.07 29.10 29.95 31.04 30.37 30.33 30.08 30.13
38.68 38.38 36.57 35.59 35.35 34.85 34.52 34.59 34.04 32.84 31.53 31.66 33.75 34.30 34.95 35.23 35.94 36.27 35.74 35.15 32.46 32.19 29.06 29.29 28.57 28.95 28.09 26.90 26.27 24.82 25.21 25.92 26.41 26.57 26.49 26.82 27.94 28.70 29.60 29.18 28.99 28.47 29.37
38.39 37.46 36.99 35.99 35.16 34.47 33.76 33.52 33.41 32.99 31.94 30.44 30.66 33.29 34.01 35.49 35.87 35.57 34.91 31.94 30.71 29.22 29.87 29.42 28.91 28.21 27.09 26.12 25.19 24.79 24.01 24.62 25.39 25.14 25.06 25.62 26.77 27.95 28.64 29.00 28.36 29.68 29.82
38.19 37.15 36.49 35.27 34.15 33.36 33.35 33.49 33.41 32.71 32.55 32.09 31.64 30.78 31.97 34.82 33.14 31.50 31.22 31.31 30.34 29.41 30.09 29.05 28.30 27.72 26.84 25.48 23.91 23.17 22.50 23.52 23.98 24.16 23.84 24.44 25.92 27.54 28.17 27.87 27.58 27.44 28.72
39.02 38.09 36.32 34.82 34.15 34.46 34.75 34.52 34.47 34.08 33.11 33.23 31.97 31.50 31.52 32.99 30.44 30.20 29.72 30.15 30.34 29.85 29.28 28.29 27.27 26.80 25.73 24.97 23.32 22.49 21.97 22.20 22.72 23.29 23.30 23.86 24.82 26.12 28.17 27.18 27.17 28.18 29.09
40.05 38.18 36.13 35.09 35.48 35.71 35.46 35.10 34.88 33.89 32.15 30.81 31.05 32.14 32.04 32.61 31.02 30.40 30.27 30.90 30.02 29.84 30.27 29.41 27.33 26.12 25.62 24.38 22.82 22.42 22.32 21.91 22.79 23.69 23.89 24.30 24.64 26.35 27.29 26.43 27.12 27.67 28.68
40.09 38.71 37.97 37.22 36.57 35.56 35.64 34.61 33.11 32.33 32.73 33.66 34.06 34.11 33.72 31.71 31.57 31.16 31.67 30.49 30.29 30.04 29.74 29.02 27.11 25.62 25.55 25.18 24.12 22.50 21.76 22.28 23.06 24.10 24.07 24.77 25.14 26.32 25.93 25.36 26.34 26.61 27.46
40.63 38.71 37.20 36.27 35.75 34.48 33.82 33.06 32.48 32.65 34.16 34.16 33.99 33.42 32.35 31.66 31.57 31.97 31.19 31.17 30.83 30.48 30.24 29.13 27.53 26.56 25.62 25.14 24.14 23.55 24.73 25.25 25.49 24.93 25.52 24.99 25.23 26.45 25.83 25.74 26.37 26.67 27.09
38.54 37.52 36.47 35.14 34.44 33.28 32.75 32.48 33.12 35.15 35.20 34.89 34.01 33.06 31.74 32.36 32.06 32.64 31.30 31.35 31.15 30.40 29.98 28.87 27.60 28.00 27.41 26.34 25.35 25.60 27.29 28.38 27.26 27.97 25.65 26.18 26.29 25.62 25.28 25.49 26.33 26.52 27.23
38.42 37.27 35.88 35.10 34.08 33.66 33.01 33.37 33.99 34.17 34.33 34.30 33.33 32.44 32.68 32.37 32.16 32.10 31.97 31.89 31.21 30.82 30.07 28.88 28.47 28.51 28.11 26.84 26.69 27.54 27.72 27.68 26.71 27.93 26.39 26.06 25.48 25.11 25.13 25.16 25.99 25.78 27.04
MSLP
996.08 997.34 998.37 999.67 1000.42 1000.99 1002.24 1003.14 1004.02 1005.13 1006.68 1007.86 1008.78 1010.40 1011.73 1012.84 1013.38 1014.06 1015.02 1015.69 1016.47 1017.13 1017.60 1018.10 1018.56 1019.00 1019.25 1019.60 1019.47 1019.70 1019.65 1019.57 1020.23 1020.07 1019.48 1018.60 1018.11 1017.69 1017.05 1016.49 1015.65 1014.80 1014.08
995.27 996.54 997.75 998.87 999.86 1000.91 1002.01 1003.18 1002.09 1004.58 1006.48 1007.60 1008.79 1010.56 1011.94 1013.01 1013.59 1014.29 1015.15 1016.20 1016.83 1017.57 1018.24 1018.72 1019.09 1019.45 1019.74 1020.10 1020.33 1020.14 1019.94 1019.77 1020.19 1020.57 1019.88 1019.05 1018.36 1017.84 1017.33 1016.57 1015.53 1014.64 1014.12
994.95 995.77 997.07 998.21 999.36 1000.58 1001.88 1002.73 1003.83 1005.29 1007.19 1008.34 1009.18 1010.25 1012.43 1013.30 1013.91 1014.90 1015.86 1016.73 1017.45 1018.32 1018.99 1019.15 1019.62 1019.87 1020.37 1020.55 1020.43 1020.36 1020.19 1020.03 1020.33 1020.51 1020.23 1019.32 1018.48 1017.94 1017.27 1016.45 1015.70 1014.81 1013.82
994.58 994.83 996.63 997.83 998.87 1000.60 1002.15 1002.59 1003.52 1005.87 1006.89 1008.33 1009.82 1010.71 1012.90 1013.94 1014.52 1015.31 1016.24 1017.18 1018.09 1018.96 1019.49 1019.84 1019.78 1020.18 1020.52 1020.86 1020.37 1020.33 1020.36 1020.37 1020.48 1020.55 1020.34 1019.74 1018.97 1018.09 1017.57 1016.81 1015.74 1014.74 1013.91
994.00 994.67 995.72 997.17 999.07 1000.42 1002.08 1002.83 1003.43 1005.79 1006.98 1008.60 1009.89 1012.00 1013.94 1014.56 1015.09 1015.52 1016.66 1017.67 1018.60 1019.19 1020.16 1020.14 1020.20 1020.72 1020.60 1020.76 1020.47 1020.31 1020.55 1020.77 1020.65 1020.64 1020.60 1020.03 1019.21 1018.42 1017.91 1017.30 1016.42 1015.34 1013.80
992.80 993.94 995.24 997.32 999.13 1000.69 1002.10 1003.42 1004.02 1006.24 1007.19 1008.76 1011.20 1013.41 1014.74 1015.28 1015.67 1016.19 1016.69 1018.05 1018.74 1019.35 1020.42 1020.60 1020.91 1021.01 1021.14 1020.94 1020.47 1020.18 1020.38 1020.76 1020.84 1020.95 1020.75 1020.32 1019.75 1019.23 1018.27 1017.55 1016.60 1015.53 1014.41
992.11 993.68 995.72 997.43 998.97 1001.15 1002.39 1003.48 1005.38 1006.84 1008.01 1010.55 1011.86 1014.53 1015.92 1016.58 1016.57 1016.97 1017.69 1018.55 1018.85 1019.96 1020.55 1020.89 1021.29 1021.60 1021.95 1021.64 1020.72 1020.49 1020.47 1020.58 1020.57 1020.70 1020.63 1020.31 1020.02 1019.35 1018.73 1017.83 1017.10 1016.32 1015.34
994.07 994.98 996.24 995.69 998.22 1000.86 1003.33 1004.67 1005.95 1008.01 1009.93 1011.89 1013.37 1015.00 1016.65 1017.67 1017.32 1017.72 1018.42 1019.00 1019.52 1020.54 1020.93 1021.34 1021.80 1022.06 1022.38 1021.75 1021.34 1021.13 1021.08 1021.10 1020.74 1020.75 1020.38 1020.23 1019.79 1019.28 1018.60 1017.92 1017.14 1016.16 1015.10
995.55 997.01 996.71 997.32 997.16 1000.61 1004.58 1006.51 1006.97 1010.46 1011.90 1012.57 1014.15 1016.00 1017.23 1017.94 1017.74 1018.15 1018.77 1019.63 1020.05 1020.84 1021.22 1021.61 1022.10 1022.20 1022.47 1022.14 1022.06 1021.85 1021.82 1021.87 1020.96 1020.63 1020.32 1020.15 1019.60 1018.91 1018.28 1017.71 1016.93 1016.20 1015.01
995.96 997.86 1000.69 998.87 1000.17 1001.81 1003.76 1009.97 1007.90 1011.71 1012.43 1013.93 1015.24 1017.25 1017.50 1018.17 1018.31 1018.78 1019.51 1019.75 1020.60 1021.42 1021.62 1021.92 1021.95 1022.59 1022.48 1022.56 1022.26 1022.62 1022.78 1022.49 1021.71 1021.17 1021.01 1020.55 1019.93 1019.16 1018.15 1017.72 1017.29 1016.79 1015.74
998.26 1000.20 999.93 1000.39 1003.34 1004.82 1006.48 1008.06 1010.41 1012.59 1014.20 1014.53 1016.59 1017.80 1018.28 1018.53 1019.00 1019.34 1019.76 1019.93 1020.93 1021.60 1022.16 1022.20 1022.40 1022.77 1022.41 1022.62 1022.77 1023.15 1023.12 1022.80 1022.35 1022.14 1021.90 1021.31 1020.53 1019.50 1018.61 1017.92 1017.37 1017.11 1016.29
999.96 1001.89 1002.39 1003.04 1005.11 1005.60 1006.96 1010.30 1011.58 1012.76 1014.59 1015.96 1017.13 1018.62 1018.66 1018.83 1019.72 1020.09 1020.30 1020.69 1021.18 1021.66 1022.42 1022.38 1022.93 1022.34 1023.00 1023.26 1023.63 1023.61 1023.07 1023.05 1022.74 1022.78 1022.29 1021.81 1021.15 1020.18 1019.28 1018.39 1017.64 1016.95 1016.25
1004.18 1005.04 1004.54 1005.67 1006.86 1008.46 1009.65 1011.26 1012.93 1014.66 1014.88 1016.38 1017.72 1017.96 1018.59 1020.04 1020.91 1020.78 1021.14 1021.39 1021.39 1021.56 1022.38 1022.28 1022.56 1023.50 1023.94 1024.30 1024.29 1023.57 1023.53 1023.45 1023.70 1023.31 1022.83 1022.30 1021.54 1020.73 1019.74 1018.62 1017.63 1016.93 1016.24
1005.14 1006.36 1006.22 1007.24 1008.60 1010.13 1011.38 1012.66 1013.03 1014.23 1015.79 1017.27 1017.92 1018.35 1020.07 1020.74 1021.28 1021.48 1021.80 1021.94 1021.74 1022.33 1022.24 1022.45 1023.61 1024.36 1024.69 1025.01 1024.50 1024.37 1024.46 1024.49 1024.33 1023.71 1023.23 1022.51 1021.74 1020.81 1019.98 1019.09 1018.08 1017.13 1016.33
1005.75 1006.95 1007.64 1008.57 1009.81 1011.24 1012.88 1013.82 1014.68 1015.95 1016.55 1017.21 1018.63 1019.47 1019.80 1021.41 1021.84 1021.69 1022.65 1022.22 1022.59 1022.92 1023.28 1023.95 1025.05 1025.39 1025.63 1025.24 1025.19 1025.63 1025.67 1025.13 1024.29 1023.84 1023.49 1022.69 1021.98 1021.36 1020.59 1019.55 1018.77 1017.90 1017.02
1006.84 1008.14 1009.14 1010.21 1011.20 1012.33 1013.71 1015.16 1016.22 1017.18 1018.25 1019.02 1019.36 1019.58 1020.52 1021.17 1022.01 1022.67 1022.38 1022.63 1023.12 1023.53 1024.54 1025.74 1026.07 1026.09 1025.69 1025.76 1026.58 1026.94 1026.25 1025.36 1024.79 1024.52 1024.14 1023.32 1022.73 1022.16 1021.40 1020.23 1019.49 1018.81 1017.85
1008.14 1009.48 1010.65 1011.57 1012.71 1013.95 1015.07 1016.07 1017.57 1019.41 1019.72 1019.69 1020.10 1020.80 1021.74 1022.14 1022.33 1022.31 1022.89 1023.56 1024.27 1024.45 1025.72 1026.32 1026.18 1026.09 1026.45 1027.05 1027.55 1027.15 1026.42 1025.78 1025.40 1025.09 1024.70 1024.19 1023.53 1022.91 1022.11 1021.18 1020.31 1019.52 1018.49
1009.58 1010.69 1011.53 1012.73 1013.68 1014.70 1015.99 1017.11 1017.99 1019.08 1020.26 1021.17 1021.69 1022.05 1022.12 1022.21 1022.65 1023.50 1023.76 1024.09 1025.35 1025.89 1026.20 1026.20 1026.39 1026.97 1027.45 1027.78 1027.54 1026.95 1026.54 1026.30 1025.96 1025.63 1025.34 1025.03 1024.35 1023.70 1022.86 1022.07 1021.24 1020.48 1019.35
1011.83 1012.97 1013.90 1014.63 1015.54 1016.45 1017.61 1018.73 1019.37 1019.39 1020.44 1021.86 1022.44 1022.65 1023.10 1023.53 1023.96 1024.14 1024.50 1025.30 1025.95 1026.48 1026.54 1026.83 1027.33 1027.69 1027.84 1027.75 1027.35 1027.21 1026.92 1026.94 1026.51 1026.26 1026.12 1025.72 1025.08 1024.37 1023.65 1022.90 1022.07 1021.21 1020.11
1013.63 1014.47 1015.02 1015.70 1016.54 1017.47 1018.32 1019.17 1020.17 1020.94 1021.98 1022.88 1023.28 1023.82 1024.12 1024.25 1024.65 1025.13 1025.63 1025.98 1026.64 1026.99 1027.17 1027.60 1027.93 1028.13 1028.12 1027.80 1027.51 1027.57 1027.20 1027.21 1027.05 1026.88 1026.73 1026.35 1025.73 1025.00 1024.35 1023.58 1022.66 1021.80 1020.84
1014.90 1015.70 1016.30 1017.10 1017.87 1018.74 1019.47 1020.40 1021.18 1022.16 1022.80 1023.12 1023.64 1023.84 1023.94 1024.88 1025.50 1025.70 1026.48 1027.13 1027.15 1027.42 1027.62 1027.75 1027.76 1027.87 1028.18 1027.89 1027.89 1027.96 1027.79 1027.79 1027.65 1027.45 1027.13 1026.77 1026.25 1025.61 1024.89 1024.08 1023.22 1022.34 1021.58
1016.00 1016.68 1017.18 1017.85 1018.88 1019.85 1020.70 1021.22 1021.60 1022.32 1022.64 1023.24 1024.13 1024.68 1024.72 1025.17 1026.21 1027.11 1027.36 1027.27 1027.27 1027.43 1027.55 1027.72 1028.09 1028.53 1028.03 1028.04 1028.39 1028.56 1028.47 1028.37 1028.10 1027.85 1027.51 1027.07 1026.54 1025.95 1025.28 1024.50 1023.65 1022.86 1022.07
1016.45 1016.76 1017.71 1018.52 1019.52 1020.16 1020.89 1021.43 1022.07 1022.76 1023.28 1023.97 1024.41 1025.20 1026.03 1026.79 1026.97 1026.92 1026.97 1027.18 1027.37 1027.51 1027.34 1027.60 1028.36 1028.51 1028.60 1028.62 1028.78 1029.06 1028.97 1028.80 1028.65 1028.27 1027.87 1027.35 1026.81 1026.26 1025.63 1025.00 1024.27 1023.51 1022.70
1017.06 1017.65 1018.38 1019.21 1020.08 1021.00 1021.74 1022.31 1022.97 1023.66 1024.28 1024.92 1025.56 1026.23 1026.37 1026.40 1026.66 1026.77 1026.92 1026.98 1027.14 1027.17 1027.56 1028.11 1028.43 1028.72 1028.93 1029.08 1029.23 1029.24 1029.07 1028.84 1028.54 1028.27 1027.94 1027.59 1027.08 1026.49 1025.94 1025.34 1024.75 1024.07 1023.34
1018.10 1018.76 1019.49 1020.23 1021.10 1021.93 1022.50 1023.18 1023.67 1024.13 1024.68 1025.18 1025.72 1026.01 1026.19 1026.50 1026.71 1026.76 1026.84 1026.86 1027.03 1027.58 1028.01 1028.39 1028.89 1029.06 1029.17 1029.54 1029.55 1029.40 1029.16 1028.84 1028.55 1028.19 1027.92 1027.59 1027.17 1026.75 1026.28 1025.77 1025.22 1024.54 1023.80
1018.56 1019.29 1020.20 1021.00 1021.70 1022.29 1022.94 1023.56 1024.07 1024.39 1024.81 1025.23 1025.56 1025.84 1026.12 1026.28 1026.64 1026.75 1026.73 1027.12 1027.55 1028.01 1028.62 1029.07 1029.41 1029.72 1029.71 1029.72 1029.77 1029.67 1029.43 1029.11 1028.76 1028.36 1028.09 1027.78 1027.46 1027.07 1026.58 1026.12 1025.57 1025.00 1024.32
Wind_Speed
19 18 19 17 17 17 16 16 18 18 18 17 18 16 14 13 12 13 11 12 13 11 9 10 9 6 5 5 4 3 4 3 3 4 2 4 4 6 8 6 7 7 8
16 20 17 20 19 18 17 17 20 19 17 19 18 17 14 13 13 14 14 12 12 11 9 9 8 6 6 6 3 5 5 4 3 2 3 3 3 4 6 7 8 8 8
15 18 17 19 19 19 16 17 18 20 19 17 18 18 14 13 14 14 14 13 12 10 9 9 7 6 6 3 3 4 3 3 3 1 3 3 3 3 6 6 6 7 7
15 19 20 21 20 18 17 21 22 18 20 18 15 17 14 14 15 15 15 14 13 11 10 7 7 7 7 4 5 4 3 4 3 2 3 4 2 5 3 4 10 8 9
18 20 21 19 19 20 19 20 22 22 17 18 18 15 13 13 11 16 15 14 13 11 8 8 8 11 15 11 2 5 4 3 3 3 3 3 3 6 8 5 5 7 10
20 19 20 21 22 22 22 22 21 20 21 21 17 15 12 9 17 22 18 13 11 11 9 7 7 11 10 14 14 14 6 3 4 2 3 3 5 4 4 7 5 8 7
11 18 22 25 25 23 23 24 24 19 19 19 18 15 14 15 23 23 22 12 12 10 9 7 8 6 8 5 11 12 12 13 10 2 2 3 4 6 5 7 9 7 7
14 10 16 28 28 27 24 24 23 19 19 17 17 17 15 13 23 23 22 14 13 10 9 8 8 7 7 7 8 8 8 7 7 4 3 4 3 7 6 4 5 6 6
23 22 17 24 29 31 27 19 24 18 16 18 16 16 15 14 23 21 17 13 12 9 7 7 7 7 9 12 8 8 8 8 9 14 13 13 13 16 14 6 9 9 10
27 22 19 23 20 31 31 19 20 18 18 14 15 12 18 16 20 18 15 10 11 6 6 5 9 7 8 10 7 6 7 6 6 7 7 9 9 11 18 10 8 8 8
19 18 23 26 24 21 27 20 20 18 16 16 14 10 12 14 14 16 13 10 8 6 5 4 5 10 12 12 9 6 5 4 8 6 5 7 8 9 9 10 10 3 9
21 20 20 25 18 18 25 19 19 19 18 15 14 11 8 10 15 13 13 11 8 7 5 3 3 15 14 12 8 11 11 7 4 6 6 8 8 9 11 10 10 8 9
17 16 22 22 20 19 22 19 17 15 14 13 12 12 11 10 8 15 13 12 11 6 3 9 17 14 12 9 12 12 8 5 6 7 7 7 6 8 10 9 8 11 9
21 18 20 22 20 18 14 12 13 12 12 11 11 12 9 8 6 5 6 6 12 10 12 10 10 10 10 6 5 8 6 5 4 3 5 5 6 8 9 9 9 11 9
21 18 17 15 17 17 13 11 11 9 9 12 10 10 11 9 3 7 6 7 7 7 9 7 6 5 4 4 6 6 5 5 7 6 7 8 8 8 10 9 10 9 10
20 15 14 14 13 14 14 14 23 20 20 17 15 12 8 11 10 12 14 15 15 13 7 5 3 3 5 6 5 4 5 9 7 7 7 7 9 9 10 10 10 10 11
20 17 14 15 13 13 12 14 15 15 21 20 19 16 12 12 16 18 18 16 14 11 6 4 4 6 5 5 2 3 5 5 5 6 7 8 8 9 11 10 11 11 12
20 24 14 13 13 13 12 12 12 13 13 10 10 9 14 17 17 16 14 11 7 6 4 5 6 5 4 3 3 4 5 6 7 6 7 8 8 8 9 10 11 12 12
15 13 13 12 12 13 12 11 11 12 12 8 6 9 10 14 16 15 13 7 7 6 6 6 5 4 4 3 4 5 5 5 6 6 7 7 8 7 9 9 10 14 15
14 18 16 12 12 12 11 11 11 10 9 7 6 4 3 8 8 6 5 6 6 5 6 5 4 4 4 5 5 4 4 6 7 6 6 6 7 7 8 9 10 10 11
10 11 15 12 11 11 12 12 10 9 8 8 6 5 9 9 6 6 5 5 5 6 5 5 4 5 4 4 5 5 5 5 5 5 5 6 6 7 8 8 8 9 10
9 10 11 12 11 11 10 9 9 8 7 8 6 6 11 7 6 5 5 6 5 5 5 6 6 4 4 5 5 5 5 5 5 6 6 6 6 6 7 7 9 9 10
10 13 13 11 10 10 9 7 7 7 9 8 8 8 7 5 5 5 6 5 5 5 5 6 5 5 4 4 5 4 4 4 4 4 5 6 6 7 6 6 8 9 9
11 11 12 10 9 8 8 8 8 9 9 8 7 6 6 5 5 6 5 5 5 5 5 5 5 6 5 5 4 4 3 4 3 4 6 5 6 8 6 7 8 9 8
11 11 11 10 9 8 9 8 8 9 9 8 7 5 4 5 5 5 5 5 5 6 6 5 4 6 7 7 6 7 7 8 6 6 4 5 6 8 7 6 8 8 9
10 10 8 8 8 8 7 7 8 7 7 7 6 6 5 5 5 5 5 6 5 5 6 4 6 6 6 5 6 6 7 8 7 9 5 5 6 6 6 7 10 7 9
Wind_Direction
194 189 181 178 175 164 166 165 159 148 144 140 130 127 128 125 121 114 106 104 96 91 81 82 80 73 67 50 54 56 58 73 99 311 285 300 317 324 323 312 316 318 328
193 184 182 171 168 166 164 161 148 140 145 133 129 128 127 126 122 118 111 106 102 95 90 88 75 75 64 55 55 53 56 58 93 346 278 294 295 305 290 306 322 328 330
193 186 177 169 167 162 155 149 139 134 135 129 127 122 128 125 115 107 107 102 95 93 93 87 87 79 60 47 47 50 51 51 51 38 295 293 281 298 317 311 316 313 328
206 185 177 174 164 146 151 141 135 135 131 123 120 114 124 119 115 114 109 103 99 90 81 80 84 78 72 43 44 53 63 51 21 349 295 288 290 299 292 307 338 339 325
204 192 173 163 145 140 144 137 127 133 123 113 108 111 121 121 123 116 111 107 104 95 79 74 66 72 67 61 74 63 59 37 360 350 314 304 319 342 346 318 327 321 324
196 187 161 143 142 137 133 124 114 117 116 109 114 118 119 109 109 115 113 112 104 97 90 70 67 55 45 54 54 55 66 47 357 354 315 330 314 313 306 329 320 342 339
173 163 150 149 136 135 127 118 113 108 104 111 107 111 107 108 104 103 106 103 98 93 90 85 73 53 42 26 36 42 35 36 47 178 316 328 314 327 315 331 336 328 306
102 93 144 135 126 117 111 111 107 107 110 114 111 111 112 111 107 106 105 101 97 93 92 89 86 64 34 39 36 35 24 12 7 17 40 325 324 328 332 301 286 284 294
104 86 114 123 118 110 106 100 106 111 111 109 111 116 120 115 109 107 105 102 96 90 89 87 87 70 48 40 46 35 25 7 1 13 14 357 345 343 354 342 350 343 339
106 103 111 92 106 113 108 119 104 107 107 111 105 116 122 115 109 108 110 108 102 98 77 77 69 75 64 51 57 40 31 348 357 355 357 348 343 344 355 1 343 345 341
103 104 99 87 98 100 109 108 111 111 108 101 105 106 117 122 118 114 110 109 117 106 99 68 46 51 48 43 51 43 33 352 357 359 345 356 352 352 351 344 338 341 341
81 92 98 102 107 102 104 112 111 109 105 105 106 107 103 108 120 112 104 101 110 104 95 79 47 75 69 55 46 39 34 18 9 11 12 3 355 350 337 331 324 328 330
86 102 98 99 101 106 111 114 110 114 112 113 115 106 96 99 104 101 104 100 89 82 99 85 76 77 76 52 40 35 29 29 22 20 11 355 343 326 320 333 337 343 323
108 103 98 101 102 104 104 108 109 111 112 116 116 107 114 105 95 84 75 71 78 81 76 71 80 76 72 60 31 27 26 18 16 3 359 336 338 348 346 342 347 345 345
101 101 95 93 97 98 87 99 105 92 109 121 117 120 116 112 101 100 122 98 94 93 78 63 54 48 54 40 38 23 360 10 18 9 5 360 360 352 349 343 351 344 351
104 97 100 100 98 99 98 85 62 84 87 88 91 101 79 98 111 107 99 97 94 89 68 84 75 74 69 56 38 4 8 22 15 8 360 2 2 354 347 349 355 353 350
104 103 99 100 101 108 106 106 109 76 77 77 86 89 94 116 91 94 95 90 94 86 91 89 82 65 64 60 37 20 22 7 358 8 7 0 357 351 351 351 353 350 351
97 95 96 99 100 98 101 109 113 118 120 99 48 87 79 78 84 98 96 85 70 63 86 83 73 73 73 75 46 32 24 10 13 7 6 360 351 347 350 352 352 347 348
103 107 108 104 102 105 109 116 114 108 100 105 89 56 60 84 90 85 77 97 101 89 83 75 79 92 86 71 51 37 31 12 9 6 1 357 346 346 348 347 346 346 349
88 92 96 101 109 110 107 107 111 106 110 110 104 105 106 95 89 81 72 85 85 90 95 100 91 82 74 59 48 28 32 22 13 6 354 350 342 340 345 340 343 343 353
96 100 111 107 107 115 118 123 122 124 123 109 101 94 99 108 108 89 82 103 114 107 108 108 105 87 76 59 45 30 30 15 7 352 348 344 339 339 338 332 339 339 351
117 113 110 112 115 116 118 118 117 112 101 97 95 100 95 83 90 118 118 111 108 111 120 106 78 80 73 66 47 32 21 12 2 354 345 341 335 332 337 338 346 346 351
112 109 108 108 111 110 103 102 101 104 105 106 104 104 108 127 132 123 116 117 120 115 105 97 107 83 60 59 51 41 28 3 337 330 337 338 339 342 338 340 346 348 350
105 106 108 109 110 112 116 111 103 104 114 113 121 133 133 124 120 120 122 124 113 93 96 103 95 96 80 58 39 24 7 345 341 333 333 333 336 340 348 348 350 342 341
113 113 114 118 121 122 116 113 111 121 124 127 126 120 113 115 113 110 105 106 97 90 98 102 97 98 89 66 44 27 4 360 357 347 345 347 344 348 347 346 348 343 342
105 108 111 112 111 111 113 117 123 123 124 126 127 120 119 107 103 100 99 94 102 97 110 104 108 100 87 61 48 26 9 1 359 354 351 355 357 351 347 345 349 345 345